Regional Weather Roundup
Issued by NWS Albany, NY

Current Version | Previous Version | Text Only | Print | Product List | Glossary On
Versions: 1 2 3 4 5 6 7 8 9 10 11 12 13 14 15 16 17 18 19 20 21 22 23 24 25 26 27 28 29 30 31 32 33 34 35 36 37 38 39 40 41 42 43 44 45 46 47 48 49 50
000 ASUS41 KALY 240410 RWRALY NEW YORK STATE HOURLY WEATHER ROUNDUP NATIONAL WEATHER SERVICE ALBANY NY 1200 AM EDT THU JUL 24 2014 NOTE: "FAIR" INDICATES FEW OR NO CLOUDS BELOW 12,000 FEET WITH NO SIGNIFICANT WEATHER AND/OR NO OBSTRUCTIONS TO VISIBILITY. NYZ032-033-038>043-046>054-057>066-NYZ062>081-240500- EAST CITY SKY/WX TMP DP RH WIND PRES REMARKS ALBANY RAIN 70 67 90 NW5 29.85S FOG GLENS FALLS CLOUDY 68 63 84 N5 29.85S POUGHKEEPSIE LGT RAIN 72 70 93 N3 29.82F NEWBURGH CLOUDY 72 72 100 CALM 29.86F MONTGOMERY CLOUDY 72 70 93 NW5 29.84F WHITE PLAINS CLOUDY 74 70 87 NW9 29.81F ISLIP CLOUDY 76 70 82 CALM 29.78F NEW YORK CITY LGT RAIN 79 71 76 W6 29.80F CENTRAL PARK CLOUDY 74 72 93 CALM 29.85S FOG $$ NYZ005>009-017-018-044>046-055-056-240500- CENTRAL CITY SKY/WX TMP DP RH WIND PRES REMARKS FULTON CLOUDY 67 57 70 N5 29.94R SYRACUSE CLOUDY 68 58 70 NW5 29.93R ROME CLOUDY 65 59 81 CALM 29.93R ELMIRA MOCLDY 65 60 84 NW6 29.94S BINGHAMTON CLOUDY 63 61 93 NW8 29.94F MONTICELLO CLOUDY 66 63 88 NW6 29.92F $$ NYZ026>034-041>043-240500- NORTH CITY SKY/WX TMP DP RH WIND PRES REMARKS WATERTOWN CLEAR 64 55 72 NW6 29.93S FORT DRUM NOT AVBL MASSENA CLOUDY 65 53 65 NW10 29.91S SARANAC LAKE CLOUDY 60 55 83 CALM 29.92R PLATTSBURGH LGT RAIN 68 57 68 NW8 29.86S $$ NYZ001>004-010>016-019>021-240500- WEST CITY SKY/WX TMP DP RH WIND PRES REMARKS NIAGARA FALLS PTCLDY 63 56 78 N8 30.00S BUFFALO MOCLDY 66 55 67 N10 29.99F DUNKIRK CLOUDY 66 54 65 N9 30.01S JAMESTOWN CLOUDY 59 55 88 N5 30.03S WELLSVILLE CLOUDY 62 55 77 NW9 30.02S ROCHESTER CLOUDY 67 59 75 W3 29.98S PENN YAN MOCLDY 64 58 80 NW6 29.97R $$ KEY WCI = WIND CHILL INDEX VSB = VISIBILITY HX = HEAT INDEX $$

USA.gov is the U.S. government's official web portal to all federal, state and local government web resources and services.